When you browse on this site, cookies collect data to enhance your experience and personalize the content and advertising you see.
Visit our Privacy Policy to learn more. By continuing to use the site, you agree to this use of cookies and data.
  • In United Kingdom
  • List of Countries
  • For 7 days
  • Water Temperature
  • Weather Map
  • Weather Widgets
  • user-avatar
    Login

    Hourly Weather Santiago Matatlan

    Today, 20 August, Tuesday

    Time Temperature Precipitation Wind Pressure Humidity
    00:00 +16°C° 0 mm 2 mps 616 mmHg 89%
    01:00 +16°C° 0 mm 2 mps 616 mmHg 89%
    02:00 +16°C° 0 mm 1 mps 615 mmHg 88%
    03:00 +16°C° 0 mm 1 mps 615 mmHg 88%
    04:00 +16°C° 0 mm 1 mps 615 mmHg 89%
    05:00 +16°C° 0 mm 1 mps 615 mmHg 89%
    06:00 +15°C° 0 mm 1 mps 615 mmHg 91%
    07:00 +18°C° 0.1 mm 1 mps 616 mmHg 87%
    08:00 +19°C° 0.1 mm 1 mps 617 mmHg 82%
    09:00 +21°C° 0.1 mm 1 mps 618 mmHg 78%
    10:00 +22°C° 0.4 mm 1 mps 618 mmHg 72%
    11:00 +23°C° 0.4 mm 2 mps 618 mmHg 66%
    12:00 +24°C° 0.4 mm 2 mps 618 mmHg 60%
    13:00 +25°C° 0.3 mm 2 mps 618 mmHg 59%
    14:00 +25°C° 0.3 mm 3 mps 618 mmHg 58%
    15:00 +25°C° 0.3 mm 3 mps 617 mmHg 57%
    16:00 +24°C° 0.3 mm 3 mps 617 mmHg 64%
    17:00 +22°C° 0.3 mm 3 mps 617 mmHg 71%
    18:00 +20°C° 0.3 mm 3 mps 616 mmHg 78%
    19:00 +19°C° 0.2 mm 2 mps 616 mmHg 83%
    20:00 +17°C° 0.2 mm 2 mps 616 mmHg 88%
    21:00 +16°C° 0.2 mm 2 mps 617 mmHg 93%
    22:00 +16°C° 0 mm 2 mps 617 mmHg 92%
    23:00 +16°C° 0 mm 1 mps 616 mmHg 92%

    Tomorrow, 21 August, Wednesday

    Time Temperature Precipitation Wind Pressure Humidity
    00:00 +15°C° 0 mm 1 mps 616 mmHg 91%
    01:00 +15°C° 0 mm 1 mps 616 mmHg 92%
    02:00 +15°C° 0 mm 1 mps 616 mmHg 92%
    03:00 +15°C° 0 mm 1 mps 615 mmHg 92%
    04:00 +14°C° 0 mm 1 mps 615 mmHg 92%
    05:00 +14°C° 0 mm 1 mps 615 mmHg 92%
    06:00 +14°C° 0 mm 1 mps 615 mmHg 92%
    07:00 +15°C° 0 mm 0 mps 616 mmHg 85%
    08:00 +17°C° 0 mm 0 mps 617 mmHg 77%
    09:00 +19°C° 0 mm 0 mps 618 mmHg 70%
    10:00 +22°C° 0.1 mm 1 mps 618 mmHg 65%
    11:00 +24°C° 0.1 mm 1 mps 618 mmHg 60%
    12:00 +25°C° 0.1 mm 2 mps 619 mmHg 55%
    13:00 +25°C° 1 mm 2 mps 618 mmHg 59%
    14:00 +24°C° 1 mm 2 mps 618 mmHg 62%
    15:00 +24°C° 1 mm 2 mps 617 mmHg 66%
    16:00 +23°C° 1.6 mm 2 mps 617 mmHg 73%
    17:00 +20°C° 1.6 mm 2 mps 616 mmHg 80%
    18:00 +19°C° 1.6 mm 2 mps 616 mmHg 87%
    19:00 +19°C° 1.1 mm 2 mps 616 mmHg 89%
    20:00 +19°C° 1.1 mm 1 mps 617 mmHg 91%
    21:00 +18°C° 1.1 mm 1 mps 617 mmHg 93%
    22:00 +18°C° 0.3 mm 1 mps 617 mmHg 93%
    23:00 +16°C° 0.3 mm 0 mps 617 mmHg 93%

    Day after tomorrow, 22 August, Thursday

    Time Temperature Precipitation Wind Pressure Humidity
    00:00 +16°C° 0.3 mm 0 mps 617 mmHg 92%
    01:00 +16°C° 0 mm 0 mps 616 mmHg 93%
    02:00 +15°C° 0 mm 0 mps 616 mmHg 93%
    03:00 +15°C° 0 mm 0 mps 615 mmHg 93%
    04:00 +15°C° 0 mm 0 mps 615 mmHg 93%
    05:00 +14°C° 0 mm 0 mps 615 mmHg 93%
    06:00 +14°C° 0 mm 0 mps 615 mmHg 93%
    07:00 +16°C° 0 mm 0 mps 616 mmHg 86%
    08:00 +18°C° 0 mm 0 mps 617 mmHg 80%
    09:00 +22°C° 0 mm 1 mps 618 mmHg 73%
    10:00 +23°C° 0.4 mm 1 mps 618 mmHg 68%
    11:00 +24°C° 0.4 mm 1 mps 619 mmHg 62%
    12:00 +25°C° 0.4 mm 1 mps 619 mmHg 57%
    13:00 +25°C° 1 mm 2 mps 618 mmHg 58%
    14:00 +25°C° 1 mm 2 mps 618 mmHg 59%
    15:00 +25°C° 1 mm 2 mps 617 mmHg 60%
    16:00 +24°C° 2.2 mm 2 mps 617 mmHg 67%
    17:00 +23°C° 2.2 mm 1 mps 616 mmHg 75%
    18:00 +22°C° 2.2 mm 1 mps 616 mmHg 82%
    19:00 +21°C° 1.6 mm 1 mps 616 mmHg 83%
    20:00 +21°C° 1.6 mm 1 mps 617 mmHg 85%
    21:00 +18°C° 1.6 mm 0 mps 617 mmHg 86%
    22:00 +17°C° 0.5 mm 0 mps 617 mmHg 87%
    23:00 +17°C° 0.5 mm 0 mps 617 mmHg 87%

    23 August, Friday

    Time Temperature Precipitation Wind Pressure Humidity
    00:00 +16°C° 0.5 mm 0 mps 617 mmHg 88%
    01:00 +16°C° 0 mm 0 mps 616 mmHg 89%
    02:00 +16°C° 0 mm 1 mps 616 mmHg 90%
    03:00 +16°C° 0 mm 1 mps 615 mmHg 90%
    04:00 +16°C° 0 mm 1 mps 615 mmHg 90%
    05:00 +16°C° 0 mm 1 mps 615 mmHg 90%
    06:00 +16°C° 0 mm 1 mps 615 mmHg 90%
    07:00 +19°C° 0 mm 1 mps 616 mmHg 83%
    08:00 +20°C° 0 mm 1 mps 617 mmHg 77%
    09:00 +22°C° 0 mm 1 mps 618 mmHg 70%
    10:00 +24°C° 0 mm 1 mps 619 mmHg 64%
    11:00 +25°C° 0 mm 1 mps 619 mmHg 58%
    12:00 +26°C° 0 mm 1 mps 619 mmHg 52%
    13:00 +26°C° 0.4 mm 2 mps 619 mmHg 53%
    14:00 +26°C° 0.4 mm 2 mps 618 mmHg 54%
    15:00 +26°C° 0.4 mm 2 mps 618 mmHg 55%
    16:00 +25°C° 0.5 mm 2 mps 617 mmHg 63%
    17:00 +24°C° 0.5 mm 2 mps 617 mmHg 70%
    18:00 +23°C° 0.5 mm 1 mps 616 mmHg 78%
    19:00 +22°C° 0.5 mm 1 mps 616 mmHg 82%
    20:00 +20°C° 0.5 mm 1 mps 617 mmHg 85%
    21:00 +19°C° 0.5 mm 1 mps 617 mmHg 88%
    22:00 +19°C° 0.2 mm 1 mps 617 mmHg 89%
    23:00 +16°C° 0.2 mm 0 mps 617 mmHg 90%

    24 August, Saturday

    Time Temperature Precipitation Wind Pressure Humidity
    00:00 +16°C° 0.2 mm 0 mps 616 mmHg 90%
    01:00 +16°C° 0 mm 0 mps 616 mmHg 90%
    02:00 +18°C° 0 mm 1 mps 616 mmHg 90%
    03:00 +18°C° 0 mm 1 mps 615 mmHg 90%
    04:00 +16°C° 0 mm 1 mps 615 mmHg 90%
    05:00 +16°C° 0 mm 1 mps 615 mmHg 90%
    06:00 +16°C° 0 mm 1 mps 615 mmHg 90%
    07:00 +19°C° 0 mm 1 mps 617 mmHg 83%
    08:00 +19°C° 0 mm 0 mps 618 mmHg 76%
    09:00 +21°C° 0 mm 0 mps 619 mmHg 69%
    10:00 +24°C° 0 mm 1 mps 619 mmHg 63%
    11:00 +26°C° 0 mm 1 mps 619 mmHg 56%
    12:00 +27°C° 0 mm 1 mps 619 mmHg 50%
    13:00 +27°C° 0.5 mm 1 mps 619 mmHg 51%
    14:00 +27°C° 0.5 mm 2 mps 618 mmHg 53%
    15:00 +27°C° 0.5 mm 2 mps 618 mmHg 54%
    16:00 +26°C° 1.4 mm 2 mps 617 mmHg 62%
    17:00 +25°C° 1.4 mm 2 mps 617 mmHg 69%
    18:00 +23°C° 1.4 mm 2 mps 616 mmHg 76%
    19:00 +21°C° 1.5 mm 2 mps 617 mmHg 80%
    20:00 +20°C° 1.5 mm 2 mps 617 mmHg 84%
    21:00 +20°C° 1.5 mm 1 mps 617 mmHg 87%
    22:00 +19°C° 0.3 mm 1 mps 617 mmHg 88%
    23:00 +19°C° 0.3 mm 1 mps 617 mmHg 89%

    25 August, Sunday

    Time Temperature Precipitation Wind Pressure Humidity
    00:00 +18°C° 0.3 mm 1 mps 616 mmHg 90%
    01:00 +18°C° 0 mm 1 mps 616 mmHg 89%
    02:00 +16°C° 0 mm 1 mps 615 mmHg 89%
    03:00 +16°C° 0 mm 1 mps 615 mmHg 89%
    04:00 +16°C° 0 mm 1 mps 615 mmHg 88%
    05:00 +15°C° 0 mm 1 mps 615 mmHg 87%
    06:00 +15°C° 0 mm 1 mps 615 mmHg 86%
    07:00 +18°C° 0 mm 1 mps 616 mmHg 78%
    08:00 +19°C° 0 mm 0 mps 617 mmHg 70%
    09:00 +21°C° 0 mm 0 mps 618 mmHg 62%
    10:00 +24°C° 0 mm 1 mps 618 mmHg 55%
    11:00 +26°C° 0 mm 1 mps 619 mmHg 49%
    12:00 +27°C° 0 mm 1 mps 619 mmHg 42%
    13:00 +28°C° 0 mm 2 mps 618 mmHg 42%
    14:00 +28°C° 0 mm 2 mps 618 mmHg 42%
    15:00 +28°C° 0 mm 3 mps 618 mmHg 42%
    16:00 +27°C° 0 mm 3 mps 617 mmHg 50%
    17:00 +25°C° 0 mm 3 mps 617 mmHg 59%
    18:00 +24°C° 0 mm 2 mps 616 mmHg 68%
    19:00 +21°C° 0.3 mm 2 mps 616 mmHg 75%
    20:00 +20°C° 0.3 mm 2 mps 616 mmHg 83%
    21:00 +19°C° 0.3 mm 1 mps 616 mmHg 90%
    22:00 +19°C° 0.2 mm 1 mps 616 mmHg 90%
    23:00 +18°C° 0.2 mm 1 mps 615 mmHg 90%
    Show more